User: anonymous   Login
Location: Unspecified
(0.0000°N, 0.0000°E)
Time: 23:33:33
(UTC+00:00)
Language:

USA 270 - Orbit

View from above orbital plane
View from above orbital plane
View from above satellite
View from above satellite

Ground track
Ground track

The orbit data is extracted from the following two-line orbital elements,

1 41744U 16052A   17314.74311882 0.00000000  00000-0  00000-0 0    07
2 41744   0.0689  70.9163 0006690 139.8487 220.2171  1.00312211    08
Epoch (UTC): 10 November 2017 17:50:05
Eccentricity: 0.0006690
inclination: 0.0689°
perigee height: 35746 km
apogee height: 35803 km
right ascension of ascending node: 70.9163°
argument of perigee: 139.8487°
revolutions per day: 1.00312211
mean anomaly at epoch: 220.2171°
orbit number at epoch: 0

The dashed part of the orbit path shows where the satellite is in the earth's shadow,  

DLR